TimeEST,TemperatureF,Dew PointF,Humidity,Sea Level PressureIn,VisibilityMPH,Wind Direction,Wind SpeedMPH,Gust SpeedMPH,PrecipitationIn,Events,Conditions,WindDirDegrees,DateUTC
12:51 AM,30.9,27.0,85,30.16,7.0,NE,9.2,18.4,0.00,,Overcast,50,2013-03-07 05:51:00
1:11 AM,30.2,26.6,86,30.14,7.0,NE,15.0,21.9,N/A,,Overcast,40,2013-03-07 06:11:00
1:29 AM,30.2,26.6,86,30.14,7.0,NNE,8.1,20.7,N/A,,Overcast,30,2013-03-07 06:29:00
1:51 AM,30.9,26.1,82,30.12,10.0,NNE,12.7,18.4,N/A,,Overcast,20,2013-03-07 06:51:00
2:51 AM,30.9,24.1,76,30.10,10.0,North,10.4,19.6,N/A,,Overcast,10,2013-03-07 07:51:00
3:51 AM,30.9,24.1,76,30.10,10.0,NNE,13.8,24.2,N/A,,Overcast,20,2013-03-07 08:51:00
4:51 AM,30.9,23.0,72,30.10,10.0,NNE,16.1,23.0,N/A,,Overcast,30,2013-03-07 09:51:00
5:51 AM,30.9,21.9,69,30.10,10.0,NNE,13.8,29.9,N/A,,Overcast,30,2013-03-07 10:51:00
6:51 AM,30.9,21.9,69,30.10,10.0,NNE,12.7,25.3,N/A,,Overcast,20,2013-03-07 11:51:00
7:51 AM,32.0,23.0,69,30.10,10.0,NNE,12.7,25.3,N/A,,Overcast,20,2013-03-07 12:51:00
9:51 AM,33.1,23.0,66,30.10,10.0,NNE,8.1,27.6,N/A,,Overcast,30,2013-03-07 14:51:00
10:51 AM,33.1,25.0,72,30.10,3.0,NNE,16.1,28.8,0.00,Snow,Light Snow,30,2013-03-07 15:51:00
11:05 AM,33.8,24.8,70,30.09,2.0,NNE,13.8,27.6,0.00,Snow,Light Snow,20,2013-03-07 16:05:00
11:18 AM,33.8,26.6,75,30.09,1.8,NNE,12.7,23.0,0.00,Snow,Light Snow,20,2013-03-07 16:18:00
11:29 AM,33.8,26.6,75,30.09,2.5,NNE,15.0,23.0,0.00,Snow,Light Snow,30,2013-03-07 16:29:00
11:37 AM,33.8,24.8,70,30.09,4.0,NNE,13.8,26.5,0.00,Snow,Light Snow,30,2013-03-07 16:37:00
11:51 AM,34.0,25.0,70,30.10,3.0,NNE,11.5,25.3,0.00,Snow,Light Snow,30,2013-03-07 16:51:00
12:51 PM,34.0,25.0,70,30.08,4.0,NNE,16.1,23.0,0.00,Snow,Light Snow,20,2013-03-07 17:51:00
1:51 PM,34.0,25.0,70,30.08,8.0,NNE,17.3,27.6,0.00,Snow,Light Snow,20,2013-03-07 18:51:00
2:20 PM,33.8,26.6,75,30.07,2.0,NNE,11.5,23.0,0.00,Snow,Light Snow,20,2013-03-07 19:20:00
2:29 PM,33.8,26.6,75,30.08,1.8,North,9.2,-,0.00,Snow,Light Snow,10,2013-03-07 19:29:00
2:51 PM,32.0,26.1,79,30.08,1.2,NNE,15.0,24.2,0.00,Snow,Light Snow,20,2013-03-07 19:51:00
3:22 PM,30.2,26.6,86,30.07,0.8,North,13.8,20.7,0.00,Snow,Light Snow,10,2013-03-07 20:22:00
3:35 PM,30.2,28.4,93,30.07,1.0,North,11.5,18.4,0.00,Snow,Light Snow,360,2013-03-07 20:35:00
3:51 PM,30.9,27.0,85,30.08,0.8,North,12.7,19.6,0.00,Snow,Light Snow,10,2013-03-07 20:51:00
4:01 PM,30.2,26.6,86,30.07,1.0,North,13.8,24.2,0.00,Snow,Light Snow,10,2013-03-07 21:01:00
4:09 PM,30.2,28.4,93,30.07,1.2,North,11.5,19.6,0.00,Snow,Light Snow,360,2013-03-07 21:09:00
4:18 PM,30.2,26.6,86,30.07,1.5,North,13.8,21.9,0.00,Snow,Light Snow,10,2013-03-07 21:18:00
4:48 PM,30.2,26.6,86,30.07,3.0,North,11.5,18.4,0.00,Snow,Light Snow,360,2013-03-07 21:48:00
4:51 PM,30.9,27.0,85,30.08,4.0,North,11.5,-,0.00,Snow,Light Snow,10,2013-03-07 21:51:00
5:00 PM,32.0,26.6,80,30.07,9.0,North,12.7,21.9,0.00,,Overcast,360,2013-03-07 22:00:00
5:51 PM,32.0,24.1,73,30.08,10.0,North,12.7,-,0.00,,Overcast,10,2013-03-07 22:51:00
6:51 PM,33.1,21.9,64,30.07,10.0,North,11.5,24.2,N/A,,Overcast,10,2013-03-07 23:51:00
7:51 PM,34.0,21.9,61,30.06,10.0,North,11.5,25.3,N/A,,Overcast,360,2013-03-08 00:51:00
8:51 PM,33.1,23.0,66,30.06,8.0,NNE,10.4,24.2,0.00,,Overcast,20,2013-03-08 01:51:00
9:17 PM,32.0,24.8,75,30.06,2.5,North,16.1,26.5,0.00,Snow,Light Snow,10,2013-03-08 02:17:00
9:30 PM,30.2,26.6,86,30.05,1.5,North,10.4,-,0.00,Snow,Light Snow,360,2013-03-08 02:30:00
9:51 PM,30.9,27.0,85,30.05,1.5,North,11.5,-,0.00,Snow,Light Snow,10,2013-03-08 02:51:00
10:33 PM,30.2,26.6,86,30.04,2.5,North,11.5,-,0.00,Snow,Light Snow,360,2013-03-08 03:33:00
10:44 PM,30.2,26.6,86,30.03,1.5,North,13.8,23.0,0.00,Snow,Light Snow,10,2013-03-08 03:44:00
10:51 PM,30.0,27.0,88,30.03,1.8,North,13.8,21.9,0.00,Snow,Light Snow,360,2013-03-08 03:51:00
10:55 PM,30.2,26.6,86,30.03,2.0,North,15.0,23.0,0.00,Snow,Light Snow,360,2013-03-08 03:55:00
11:08 PM,30.2,26.6,86,30.03,3.0,North,12.7,-,0.00,Snow,Light Snow,10,2013-03-08 04:08:00
11:15 PM,30.2,26.6,86,30.03,4.0,North,11.5,19.6,0.00,Snow,Light Snow,10,2013-03-08 04:15:00
11:51 PM,30.9,26.1,82,30.03,2.5,North,13.8,19.6,0.00,Snow,Light Snow,10,2013-03-08 04:51:00